Regional Weather Roundup
Issued by NWS

Home | Current Version | Previous Version | Text Only | Print | Product List | Glossary On
Versions: 1 2 3 4 5 6 7 8 9 10 11 12 13 14 15 16 17 18 19 20 21 22 23 24 25 26 27 28 29 30 31 32 33 34 35 36 37 38 39 40 41 42 43 44 45 46 47 48 49 50
000
ASPQ40 PGUM 251012
RWRPQ
WEATHER ROUNDUP FOR THE MARIANAS AND MICRONESIA
NATIONAL WEATHER SERVICE TIYAN GU
800 PM CHST THU DEC 25 2014

GUZ001>004-251100-
MARIANA ISLANDS-

CITY           SKY/WX    TMP DP  RH WIND       PRES   REMARKS
GUAM AIRPORT   PTCLDY    81  77  89 E9        29.85R
ANDERSEN AFB   PTCLDY    79  75  89 E17G23    29.86S
ROTA AIRPORT   CLOUDY    77  75  94 E17G25    29.88R
TINIAN AP      PTCLDY    81  75  83 E16       29.86R
SAIPAN AP      MOCLDY    81  75  83 E20G25    29.87R

$$

PMZ161-251100-
REPUBLIC OF PALAU-

CITY           SKY/WX    TMP DP  RH WIND       PRES   REMARKS
KOROR AP       NOT AVBL
KOROR WSO      LGT RAIN  75  73  94 SE3       29.79R

$$

PMZ171>174-251100-
FEDERATED STATES OF MICRONESIA-

CITY           SKY/WX    TMP DP  RH WIND       PRES   REMARKS
YAP AIRPORT    MOCLDY    82  77  83 E13       29.74R HX  91
CHUUK AP       CLOUDY    84  77  79 NE9       29.74R HX  94
POHNPEI AP     CLOUDY    81  77  89 E14       29.76R
POHNPEI WSO    CLOUDY    82  75  78 SE10      29.80R
KOSRAE AP      NOT AVBL

$$

PMZ181-251100-
REPUBLIC OF THE MARSHALL ISLANDS-

CITY           SKY/WX    TMP DP  RH WIND       PRES   REMARKS
KWAJALEIN AP   CLOUDY    82  72  69 NE20G29   29.80S
MAJURO AP      NOT AVBL
MAJURO WSO     CLOUDY    82  75  78 NE16      29.76R

$$



USA.gov is the U.S. government's official web portal to all federal, state and local government web resources and services.